Weather History for Beaufort, NC

Change the Weather History Date:

Monday, April 29, 2013

  Actual Average Record
Temperature  
Mean Temperature 64 °F -  
Max Temperature 66 °F 73 °F 86 °F (1990)
Min Temperature 62 °F 52 °F 36 °F (1967)
Degree Days  
Heating Degree Days 1    
Growing Degree Days 14 (Base 50)    
Moisture  
Dew Point 60 °F    
Average Humidity 86    
Maximum Humidity 97    
Minimum Humidity 70    
Precipitation  
Precipitation 0.44 in - - ()
Sea Level Pressure  
Sea Level Pressure 30.07 in    
Wind  
Wind Speed 8 mph (SSW)    
Max Wind Speed 13 mph    
Max Gust Speed -    
Visibility 8 miles    
Events Rain    
Averages and records for this station are not official NWS values.
T = Trace of Precipitation, MM = Missing Value Source: NWS Daily Summary

Daily Weather History Graph

Daily Weather History Graph

Search for Another Location

Airport:

Trip Planner

Search our weather history database for the weather conditions in past years. The results will help you decide how hot, cold, wet, or windy it might be!

Date:

Astronomy

Apr. 29, 2013 Rise Set
Actual Time 6:18 AM EDT 7:50 PM EDT
Civil Twilight 5:51 AM EDT 8:17 PM EDT
Nautical Twilight 5:19 AM EDT 8:49 PM EDT
Astronomical Twilight 4:45 AM EDT 9:23 PM EDT
Moon No Moon Rise 9:40 AM EDT
Length of Visible Light 14h 25m
Length of Day
13h 32m
Waning Gibbous, 80% of the Moon is Illuminated
Apr 29
Waning Gibbous
May 2
Last Quarter
May 9
New
May 18
First Quarter
May 25
Full

Hourly Weather History & Observations

Time (EDT) Temp. Dew Point Humidity Pressure Visibility Wind Dir Wind Speed Gust Speed Precip Events Conditions
12:58 AM 64.9 °F 55.0 °F 70% 30.14 in 10.0 mi SE 6.9 mph - N/A   Mostly Cloudy
1:58 AM 64.9 °F 55.0 °F 70% 30.12 in 10.0 mi SSE 10.4 mph - N/A   Overcast
2:58 AM 64.9 °F 55.0 °F 70% 30.10 in 10.0 mi SSE 5.8 mph - N/A   Overcast
3:58 AM 64.9 °F 55.9 °F 73% 30.09 in 10.0 mi SSE 5.8 mph - N/A   Overcast
4:58 AM 64.9 °F 57.0 °F 75% 30.08 in 10.0 mi SSE 5.8 mph - N/A   Overcast
5:58 AM 64.9 °F 57.9 °F 78% 30.08 in 10.0 mi South 6.9 mph - N/A   Overcast
6:58 AM 64.9 °F 57.9 °F 78% 30.09 in 10.0 mi SSE 8.1 mph - N/A   Unknown
7:58 AM 66.9 °F 59.0 °F 76% 30.08 in 10.0 mi South 9.2 mph - 0.00 in   Overcast
8:58 AM 64.0 °F 61.0 °F 90% 30.10 in 4.0 mi SW 5.8 mph - 0.04 in Rain Light Rain
9:58 AM 64.0 °F 61.0 °F 90% 30.11 in 5.0 mi SW 9.2 mph - 0.05 in Rain Light Rain
10:58 AM 64.0 °F 61.0 °F 90% 30.12 in 7.0 mi SW 11.5 mph - 0.06 in Rain Light Rain
11:32 AM 62.6 °F 59.0 °F 88% 30.11 in 2.0 mi SSW 5.8 mph - 0.08 in Rain Heavy Rain
11:45 AM 62.6 °F 60.8 °F 94% 30.11 in 3.0 mi South 5.8 mph - 0.12 in Rain Rain
11:58 AM 62.1 °F 60.1 °F 93% 30.11 in 4.0 mi South 6.9 mph - 0.15 in Rain Rain
12:58 PM 63.0 °F 61.0 °F 93% 30.08 in 3.0 mi SE 6.9 mph - 0.13 in Rain Rain
4:58 PM 66.0 °F 63.0 °F 90% 30.01 in 8.0 mi SSW 11.5 mph - N/A   Overcast
5:58 PM 66.0 °F 63.0 °F 90% 30.01 in 10.0 mi SW 12.7 mph - N/A   Mostly Cloudy
6:15 PM 64.4 °F 62.6 °F 94% 30.01 in 9.0 mi SW 12.7 mph - N/A   Mostly Cloudy
6:32 PM 64.4 °F 62.6 °F 94% 30.00 in 9.0 mi SW 10.4 mph - N/A   Mostly Cloudy
6:58 PM 64.0 °F 61.0 °F 90% 30.01 in 10.0 mi SW 6.9 mph - N/A   Mostly Cloudy
7:58 PM 64.0 °F 61.0 °F 90% 30.02 in 10.0 mi WSW 3.5 mph - N/A   Scattered Clouds
8:58 PM 64.0 °F 62.1 °F 93% 30.03 in 9.0 mi SSW 5.8 mph - N/A   Overcast
9:58 PM 64.0 °F 62.1 °F 93% 30.04 in 10.0 mi SSW 8.1 mph - 0.00 in Rain Light Rain
10:58 PM 63.0 °F 62.1 °F 97% 30.02 in 10.0 mi South 5.8 mph - 0.01 in   Mostly Cloudy
11:58 PM 63.0 °F 62.1 °F 97% 30.01 in 10.0 mi Calm Calm - N/A   Overcast